Location: Newark
(55.7083°N, 13.1992°E)
Time: 22:47:54
(UTC+00:00)

Envisat - Pass Details

Date: 09 October 2022
Orbit: 763 x 765 km, 98.2° (Epoch: 08 December)

Event Time Altitude Azimuth Distance (km) Brightness Sun altitude
Rises 03:30:44 0° 16° (NNE) 3,249 6.7 -16.9°
Reaches altitude 10° 03:33:04 10° 19° (NNE) 2,318 5.9 -16.5°
Maximum altitude 03:38:10 67° 103° (ESE) 831 3.4 -15.8°
Drops below altitude 10° 03:43:13 10° 186° (S) 2,301 5.3 -15.1°
Sets 03:45:32 0° 189° (S) 3,222 6.0 -14.8°
